Torna al catalogo

STARLINK-37895

AttivoComunicazioniVLEO
NORAD 69950·PAYLOAD·🇺🇸 United States

Lanciato Jul 9, 2026 da Cape Canaveral Space Force Station

Loading…

Prossimi Passaggi (prossime 24 ore)

TLE

AggiornatoSource: CelesTrak SupGP

Epoca: Sep 15, 2026, 04:40 UTC

1 69950C 26157H   26258.19493056  .00070484  00000+0  20151-2 0  2581
2 69950  53.1587 358.6389 0001093  89.5035  27.7449 15.35386994    12

Traccia STARLINK-37895 in tempo reale con AllMySat

Download on the App Store